N87LA CYXS-KBLI

Flight info

Callsign N87LA
Flight time 1h 3m
Altitude 31000
Route YXS DCT YWL DCT HUH
Aircraft STAR/L-SDFGRWY/S

Departure

Time 2026-05-05 23:36
Airport Prince George (International) Airport (CYXS)

Arrival

Time 2026-05-06 00:40
Airport Bellingham International Airport (KBLI)
Time Latitude Longitude Altitude Speed Heading
2026-05-05 23:16 53.88015 -122.67942 2235 ft 0 kts 135°
2026-05-05 23:26 53.88014 -122.67941 2235 ft 1 kts 135°
2026-05-05 23:27 53.88027 -122.67921 2234 ft 7 kts 346°
2026-05-05 23:27 53.88070 -122.67946 2234 ft 7 kts
2026-05-05 23:27 53.88100 -122.67923 2233 ft 10 kts 26°
2026-05-05 23:27 53.88185 -122.67841 2230 ft 10 kts 31°
2026-05-05 23:28 53.88260 -122.67776 2228 ft 13 kts 18°
2026-05-05 23:28 53.88340 -122.67723 2227 ft 11 kts 30°
2026-05-05 23:28 53.88424 -122.67638 2229 ft 15 kts 31°
2026-05-05 23:28 53.88504 -122.67565 2228 ft 12 kts
2026-05-05 23:29 53.88556 -122.67637 2232 ft 11 kts 301°
2026-05-05 23:29 53.88578 -122.67701 2234 ft 8 kts 301°
2026-05-05 23:29 53.88618 -122.67753 2236 ft 9 kts
2026-05-05 23:29 53.88693 -122.67688 2238 ft 17 kts 29°
2026-05-05 23:30 53.88795 -122.67586 2239 ft 13 kts 30°
2026-05-05 23:30 53.88874 -122.67506 2240 ft 16 kts 32°
2026-05-05 23:30 53.88951 -122.67424 2237 ft 14 kts 31°
2026-05-05 23:30 53.89036 -122.67340 2237 ft 13 kts 30°
2026-05-05 23:31 53.89113 -122.67263 2234 ft 13 kts 30°
2026-05-05 23:31 53.89194 -122.67183 2236 ft 11 kts 30°
2026-05-05 23:31 53.89268 -122.67110 2236 ft 13 kts 30°
2026-05-05 23:31 53.89285 -122.67093 2236 ft 0 kts 30°
2026-05-05 23:33 53.89293 -122.67085 2236 ft 8 kts 30°
2026-05-05 23:33 53.89375 -122.67001 2239 ft 12 kts 32°
2026-05-05 23:33 53.89393 -122.66937 2240 ft 5 kts 114°
2026-05-05 23:34 53.89370 -122.66913 2240 ft 4 kts 168°
2026-05-05 23:34 53.89365 -122.66912 2240 ft 0 kts 168°
2026-05-05 23:35 53.89361 -122.66910 2240 ft 7 kts 168°
2026-05-05 23:35 53.89122 -122.66845 2230 ft 59 kts 171°
2026-05-05 23:35 53.88575 -122.66693 2216 ft 103 kts 171°
2026-05-05 23:36 53.87795 -122.66468 2476 ft 123 kts 166°
2026-05-05 23:36 53.86900 -122.66081 2876 ft 141 kts 162°
2026-05-05 23:36 53.85900 -122.65611 3399 ft 157 kts 165°
2026-05-05 23:36 53.84799 -122.65110 3964 ft 169 kts 168°
2026-05-05 23:37 53.83604 -122.64764 4560 ft 179 kts 173°
2026-05-05 23:37 53.82326 -122.64600 5098 ft 190 kts 178°
2026-05-05 23:37 53.80973 -122.64516 5660 ft 200 kts 179°
2026-05-05 23:37 53.79561 -122.64426 6313 ft 204 kts 177°
2026-05-05 23:38 53.78175 -122.64078 7137 ft 199 kts 169°
2026-05-05 23:38 53.76820 -122.63526 7886 ft 201 kts 167°
2026-05-05 23:38 53.75481 -122.62918 8648 ft 204 kts 167°
2026-05-05 23:38 53.74114 -122.62272 9438 ft 205 kts 167°
2026-05-05 23:39 53.72738 -122.61610 10217 ft 206 kts 168°
2026-05-05 23:39 53.71339 -122.61016 10928 ft 207 kts 173°
2026-05-05 23:39 53.69910 -122.60638 11632 ft 209 kts 175°
2026-05-05 23:39 53.68470 -122.60207 12337 ft 211 kts 173°
2026-05-05 23:40 53.67024 -122.59725 13049 ft 213 kts 174°
2026-05-05 23:40 53.65559 -122.59281 13751 ft 215 kts 175°
2026-05-05 23:40 53.64080 -122.58834 14385 ft 217 kts 174°
2026-05-05 23:40 53.62611 -122.58372 15027 ft 218 kts 174°
2026-05-05 23:41 53.61111 -122.57906 15671 ft 220 kts 175°
2026-05-05 23:41 53.59601 -122.57445 16341 ft 221 kts 175°
2026-05-05 23:41 53.58082 -122.56977 17010 ft 222 kts 175°
2026-05-05 23:41 53.56556 -122.56504 17695 ft 224 kts 175°
2026-05-05 23:42 53.55015 -122.56031 18364 ft 225 kts 175°
2026-05-05 23:42 53.53476 -122.55557 18930 ft 225 kts 175°
2026-05-05 23:42 53.51931 -122.55083 19491 ft 227 kts 175°
2026-05-05 23:42 53.50376 -122.54606 20067 ft 227 kts 175°
2026-05-05 23:43 53.48812 -122.54126 20652 ft 229 kts 175°
2026-05-05 23:43 53.47250 -122.53645 21239 ft 229 kts 176°
2026-05-05 23:43 53.45675 -122.53164 21823 ft 230 kts 176°
2026-05-05 23:43 53.44101 -122.52681 22407 ft 231 kts 176°
2026-05-05 23:44 53.42518 -122.52198 22985 ft 231 kts 176°
2026-05-05 23:44 53.40952 -122.51718 23548 ft 232 kts 176°
2026-05-05 23:44 53.39359 -122.51232 24031 ft 232 kts 176°
2026-05-05 23:44 53.37766 -122.50747 24455 ft 235 kts 176°
2026-05-05 23:45 53.36148 -122.50254 24895 ft 236 kts 176°
2026-05-05 23:45 53.34533 -122.49756 25372 ft 236 kts 176°
2026-05-05 23:45 53.32920 -122.49266 25851 ft 234 kts 177°
2026-05-05 23:45 53.31326 -122.48783 26334 ft 233 kts 177°
2026-05-05 23:46 53.29724 -122.48298 26762 ft 234 kts 177°
2026-05-05 23:46 53.28149 -122.47817 27215 ft 233 kts 177°
2026-05-05 23:46 53.26545 -122.47332 27637 ft 235 kts 177°
2026-05-05 23:46 53.24945 -122.46844 28072 ft 234 kts 177°
2026-05-05 23:47 53.23341 -122.46357 28486 ft 234 kts 177°
2026-05-05 23:47 53.21740 -122.45874 28907 ft 234 kts 177°
2026-05-05 23:47 53.20140 -122.45388 29319 ft 234 kts 178°
2026-05-05 23:47 53.18532 -122.44904 29703 ft 235 kts 178°
2026-05-05 23:48 53.16927 -122.44417 30115 ft 234 kts 178°
2026-05-05 23:48 53.15340 -122.43938 30422 ft 236 kts 178°
2026-05-05 23:48 53.13715 -122.43451 30684 ft 240 kts 178°
2026-05-05 23:48 53.12038 -122.42947 30814 ft 250 kts 177°
2026-05-05 23:49 53.10281 -122.42419 30875 ft 263 kts 176°
2026-05-05 23:49 53.08443 -122.41859 30903 ft 275 kts 176°
2026-05-05 23:49 53.06521 -122.41281 30918 ft 286 kts 176°
2026-05-05 23:49 53.04529 -122.40683 30926 ft 295 kts 175°
2026-05-05 23:50 53.00382 -122.39436 30932 ft 310 kts 175°
2026-05-05 23:50 52.96100 -122.38154 30935 ft 319 kts 175°
2026-05-05 23:51 52.91681 -122.36834 30940 ft 326 kts 175°
2026-05-05 23:51 52.87192 -122.35495 30947 ft 330 kts 175°
2026-05-05 23:52 52.82650 -122.34145 30954 ft 334 kts 174°
2026-05-05 23:52 52.78060 -122.32780 30960 ft 336 kts 174°
2026-05-05 23:53 52.73476 -122.31421 30951 ft 338 kts 174°
2026-05-05 23:53 52.68853 -122.30055 30970 ft 337 kts 175°
2026-05-05 23:54 52.64242 -122.28694 30974 ft 337 kts 175°
2026-05-05 23:54 52.59629 -122.27336 30979 ft 336 kts 175°
2026-05-05 23:55 52.55052 -122.25990 30978 ft 337 kts 174°
2026-05-05 23:55 52.50436 -122.24638 30982 ft 337 kts 174°
2026-05-05 23:56 52.45810 -122.23285 30979 ft 338 kts 174°
2026-05-05 23:56 52.41184 -122.21933 30979 ft 338 kts 174°
2026-05-05 23:57 52.36556 -122.20584 30979 ft 338 kts 174°
2026-05-05 23:57 52.31956 -122.19249 30986 ft 339 kts 174°
2026-05-05 23:58 52.27299 -122.17896 30982 ft 341 kts 174°
2026-05-05 23:58 52.22612 -122.16955 30980 ft 337 kts 185°
2026-05-05 23:59 52.17987 -122.17668 30962 ft 335 kts 189°
2026-05-05 23:59 52.13380 -122.18253 30974 ft 333 kts 191°
2026-05-06 00:00 52.08767 -122.18851 30976 ft 332 kts 191°
2026-05-06 00:00 52.04156 -122.19461 30980 ft 333 kts 190°
2026-05-06 00:01 51.99524 -122.20078 30971 ft 334 kts 190°
2026-05-06 00:01 51.94885 -122.20694 30977 ft 335 kts 190°
2026-05-06 00:02 51.90267 -122.21303 30977 ft 335 kts 190°
2026-05-06 00:02 51.85615 -122.21915 30969 ft 336 kts 190°
2026-05-06 00:03 51.80965 -122.22526 30966 ft 335 kts 190°
2026-05-06 00:03 51.76323 -122.23139 30957 ft 334 kts 190°
2026-05-06 00:04 51.71710 -122.23739 30969 ft 335 kts 190°
2026-05-06 00:04 51.67062 -122.24348 30965 ft 336 kts 189°
2026-05-06 00:05 51.60075 -122.25259 30962 ft 336 kts 189°
2026-05-06 00:06 51.55425 -122.25865 30965 ft 335 kts 190°
2026-05-06 00:06 51.50793 -122.26465 30962 ft 336 kts 189°
2026-05-06 00:07 51.46129 -122.27068 30956 ft 336 kts 190°
2026-05-06 00:07 51.41478 -122.27673 30962 ft 335 kts 190°
2026-05-06 00:08 51.36821 -122.28269 30952 ft 337 kts 190°
2026-05-06 00:08 51.32164 -122.28868 30958 ft 335 kts 190°
2026-05-06 00:09 51.27526 -122.29463 30964 ft 334 kts 190°
2026-05-06 00:09 51.22900 -122.30057 30966 ft 333 kts 190°
2026-05-06 00:10 51.18313 -122.30643 30966 ft 333 kts 190°
2026-05-06 00:10 51.13687 -122.31229 30964 ft 334 kts 189°
2026-05-06 00:11 51.09042 -122.31825 30969 ft 335 kts 189°
2026-05-06 00:11 51.04398 -122.32422 30964 ft 336 kts 189°
2026-05-06 00:12 50.99731 -122.33010 30958 ft 337 kts 189°
2026-05-06 00:12 50.95071 -122.33596 30954 ft 336 kts 189°
2026-05-06 00:13 50.90432 -122.34182 30954 ft 334 kts 189°
2026-05-06 00:13 50.85814 -122.34763 30957 ft 336 kts 189°
2026-05-06 00:14 50.81167 -122.35351 30958 ft 335 kts 189°
2026-05-06 00:14 50.76552 -122.35940 30956 ft 332 kts 189°
2026-05-06 00:15 50.71925 -122.36509 30954 ft 334 kts 189°
2026-05-06 00:15 50.67322 -122.37081 30952 ft 333 kts 189°
2026-05-06 00:16 50.62689 -122.37666 30952 ft 335 kts 189°
2026-05-06 00:16 50.58019 -122.38252 30938 ft 338 kts 188°
2026-05-06 00:17 50.53323 -122.38835 30944 ft 338 kts 189°
2026-05-06 00:17 50.48642 -122.39414 30935 ft 338 kts 189°
2026-05-06 00:18 50.44022 -122.39989 30948 ft 333 kts 189°
2026-05-06 00:18 50.39384 -122.40554 30939 ft 335 kts 189°
2026-05-06 00:19 50.34729 -122.41136 30927 ft 336 kts 189°
2026-05-06 00:19 50.30062 -122.41706 30929 ft 335 kts 189°
2026-05-06 00:20 50.25384 -122.42292 30547 ft 348 kts 188°
2026-05-06 00:20 50.22917 -122.42581 30073 ft 362 kts 188°
2026-05-06 00:20 50.20362 -122.42903 29520 ft 374 kts 188°
2026-05-06 00:20 50.17779 -122.43215 28969 ft 380 kts 188°
2026-05-06 00:21 50.15127 -122.43541 28425 ft 384 kts 188°
2026-05-06 00:21 50.12454 -122.43868 27913 ft 387 kts 188°
2026-05-06 00:21 50.09759 -122.44197 27393 ft 388 kts 188°
2026-05-06 00:21 50.07077 -122.44522 26930 ft 386 kts 188°
2026-05-06 00:22 50.04399 -122.44853 26428 ft 383 kts 188°
2026-05-06 00:22 50.01768 -122.45169 26019 ft 378 kts 188°
2026-05-06 00:22 49.99151 -122.45485 25534 ft 378 kts 188°
2026-05-06 00:22 49.96533 -122.45807 25081 ft 377 kts 188°
2026-05-06 00:23 49.93950 -122.46122 24618 ft 377 kts 188°
2026-05-06 00:23 49.91332 -122.46434 24155 ft 378 kts 187°
2026-05-06 00:23 49.88713 -122.46749 23700 ft 378 kts 187°
2026-05-06 00:23 49.86090 -122.47063 23172 ft 376 kts 188°
2026-05-06 00:24 49.83537 -122.47384 22933 ft 368 kts 189°
2026-05-06 00:24 49.80970 -122.47698 22403 ft 371 kts 187°
2026-05-06 00:24 49.78404 -122.47986 21915 ft 368 kts 188°
2026-05-06 00:24 49.75844 -122.48318 21404 ft 370 kts 187°
2026-05-06 00:25 49.73306 -122.48608 20883 ft 371 kts 187°
2026-05-06 00:25 49.70705 -122.48918 20391 ft 369 kts 187°
2026-05-06 00:25 49.68177 -122.49232 19912 ft 369 kts 187°
2026-05-06 00:25 49.65618 -122.49526 19474 ft 365 kts 188°
2026-05-06 00:26 49.63613 -122.49742 21741 ft 271 kts 188°
2026-05-06 00:26 49.61625 -122.50031 21235 ft 302 kts 190°
2026-05-06 00:26 49.59455 -122.50287 20736 ft 322 kts 186°
2026-05-06 00:26 49.57177 -122.50531 20267 ft 335 kts 188°
2026-05-06 00:27 49.54824 -122.50840 19781 ft 341 kts 187°
2026-05-06 00:27 49.52451 -122.51094 19182 ft 342 kts 187°
2026-05-06 00:27 49.50079 -122.51398 18612 ft 343 kts 187°
2026-05-06 00:27 49.47689 -122.51673 17997 ft 344 kts 186°
2026-05-06 00:28 49.45301 -122.51949 17346 ft 343 kts 187°
2026-05-06 00:28 49.42965 -122.52235 16717 ft 341 kts 187°
2026-05-06 00:28 49.40584 -122.52517 16085 ft 338 kts 186°
2026-05-06 00:28 49.38238 -122.52794 15484 ft 336 kts 186°
2026-05-06 00:29 49.35916 -122.53071 14884 ft 334 kts 186°
2026-05-06 00:29 49.33603 -122.53342 14201 ft 334 kts 186°
2026-05-06 00:29 49.31290 -122.53612 13494 ft 333 kts 186°
2026-05-06 00:29 49.29028 -122.53886 12742 ft 318 kts 186°
2026-05-06 00:30 49.26872 -122.54137 12009 ft 305 kts 185°
2026-05-06 00:30 49.24818 -122.54380 11307 ft 295 kts 185°
2026-05-06 00:30 49.22796 -122.54618 10611 ft 288 kts 185°
2026-05-06 00:30 49.20817 -122.54852 9922 ft 282 kts 185°
2026-05-06 00:31 49.18880 -122.55077 9175 ft 276 kts 185°
2026-05-06 00:31 49.16979 -122.55296 8442 ft 271 kts 186°
2026-05-06 00:31 49.15121 -122.55521 7725 ft 266 kts 185°
2026-05-06 00:31 49.13292 -122.55729 7026 ft 262 kts 186°
2026-05-06 00:32 49.11490 -122.55946 6332 ft 257 kts 186°
2026-05-06 00:32 49.09725 -122.56149 5610 ft 253 kts 187°
2026-05-06 00:32 49.07989 -122.56358 5005 ft 245 kts 186°
2026-05-06 00:32 49.06320 -122.56552 4507 ft 236 kts 186°
2026-05-06 00:33 49.04702 -122.56734 4006 ft 229 kts 186°
2026-05-06 00:33 49.03133 -122.56871 3516 ft 224 kts 179°
2026-05-06 00:33 49.01597 -122.56647 3018 ft 220 kts 174°
2026-05-06 00:33 49.00094 -122.56324 2516 ft 216 kts 173°
2026-05-06 00:34 48.98621 -122.56073 2026 ft 210 kts 177°
2026-05-06 00:34 48.97195 -122.55948 1746 ft 198 kts 177°
2026-05-06 00:34 48.95875 -122.55772 1594 ft 182 kts 177°
2026-05-06 00:34 48.94676 -122.55613 1540 ft 165 kts 178°
2026-05-06 00:35 48.93583 -122.55495 1523 ft 149 kts 178°
2026-05-06 00:35 48.92608 -122.55377 1507 ft 140 kts 178°
2026-05-06 00:35 48.91673 -122.55261 1514 ft 133 kts 179°
2026-05-06 00:35 48.90764 -122.55157 1506 ft 130 kts 178°
2026-05-06 00:36 48.89892 -122.55045 1496 ft 116 kts 178°
2026-05-06 00:36 48.89116 -122.54945 1492 ft 110 kts 176°
2026-05-06 00:36 48.88361 -122.54859 1504 ft 112 kts 177°
2026-05-06 00:36 48.87608 -122.54604 1532 ft 114 kts 154°
2026-05-06 00:37 48.86919 -122.53930 1531 ft 120 kts 156°
2026-05-06 00:37 48.86102 -122.53723 1436 ft 122 kts 184°
2026-05-06 00:37 48.85281 -122.53822 1334 ft 114 kts 184°
2026-05-06 00:37 48.84522 -122.53793 1162 ft 107 kts 181°
2026-05-06 00:38 48.83800 -122.53795 978 ft 104 kts 183°
2026-05-06 00:38 48.83089 -122.53812 844 ft 100 kts 182°
2026-05-06 00:38 48.82406 -122.53790 717 ft 98 kts 179°
2026-05-06 00:38 48.81724 -122.53752 619 ft 97 kts 182°
2026-05-06 00:39 48.81036 -122.53766 478 ft 100 kts 181°
2026-05-06 00:39 48.80334 -122.53764 296 ft 101 kts 181°
2026-05-06 00:39 48.79646 -122.53752 160 ft 92 kts 181°
2026-05-06 00:39 48.79107 -122.53754 157 ft 58 kts 180°
2026-05-06 00:40 48.78861 -122.53752 159 ft 28 kts 180°
2026-05-06 00:40 48.78684 -122.53755 158 ft 18 kts 179°
2026-05-06 00:40 48.78579 -122.53751 158 ft 15 kts 179°
2026-05-06 00:40 48.78458 -122.53748 154 ft 19 kts 179°
2026-05-06 00:41 48.78372 -122.53700 153 ft 12 kts 123°
2026-05-06 00:41 48.78386 -122.53570 155 ft 16 kts 22°
2026-05-06 00:41 48.78522 -122.53577 157 ft 23 kts 352°
2026-05-06 00:41 48.78649 -122.53583 160 ft 19 kts 359°
2026-05-06 00:42 48.78803 -122.53583 160 ft 22 kts 359°
2026-05-06 00:42 48.78948 -122.53583 159 ft 21 kts 360°
2026-05-06 00:42 48.79092 -122.53583 156 ft 19 kts 360°
2026-05-06 00:42 48.79155 -122.53535 155 ft 7 kts 41°
2026-05-06 00:43 48.79195 -122.53483 154 ft 9 kts 40°
2026-05-06 00:43 48.79244 -122.53419 153 ft 10 kts 35°
2026-05-06 00:43 48.79296 -122.53359 154 ft 9 kts 63°
2026-05-06 00:43 48.79297 -122.53267 154 ft 8 kts 82°
2026-05-06 00:44 48.79316 -122.53229 153 ft 3 kts 352°
2026-05-06 00:44 48.79336 -122.53242 153 ft 2 kts 347°
2026-05-06 00:44 48.79346 -122.53248 153 ft 0 kts 336°
2026-05-06 00:44 48.79349 -122.53252 153 ft 1 kts 320°
2026-05-06 00:45 48.79353 -122.53256 153 ft 1 kts 318°
2026-05-06 00:45 48.79353 -122.53257 153 ft 0 kts 318°